,,,PA_Meas_PMT16A,,PR_Meas_QMR101_102,,RH_Meas_QMH101,,SR_Meas_QMS101,,TA_Meas_QMH101,,GenWind,,GenWind,
date,time,status,PA,status,PR,status,RH,status,SR,status,TA,status,DirAvg,status,SpdAvg,
2011-01-24, 00:00:04,VALID,1000.99,VALID,0,VALID,91.029,VALID,0,VALID,23.7207,VALID,303,VALID,0.578125,
2011-01-24, 00:01:04,VALID,1000.99,VALID,0,VALID,90.9909,VALID,0,VALID,23.7012,VALID,303,VALID,0.644141,
2011-01-24, 00:02:04,VALID,1001,VALID,0,VALID,90.968,VALID,0,VALID,23.7207,VALID,29,VALID,0.845312,
2011-01-24, 00:03:04,VALID,1001.02,VALID,0,VALID,90.9298,VALID,0,VALID,23.7207,VALID,29,VALID,0.691406,
2011-01-24, 00:04:04,VALID,1000.98,VALID,0,VALID,90.884,VALID,0,VALID,23.7597,VALID,36,VALID,0.717188,
2011-01-24, 00:05:04,VALID,1001,VALID,0,VALID,90.8917,VALID,0,VALID,23.7597,VALID,52,VALID,0.787891,
2011-01-24, 00:06:04,VALID,1001,VALID,0,VALID,90.884,VALID,0,VALID,23.7988,VALID,54,VALID,0.620703,
2011-01-24, 00:07:04,VALID,1000.98,VALID,0,VALID,90.8917,VALID,0,VALID,23.8183,VALID,54,VALID,0.770703,
2011-01-24, 00:08:04,VALID,1000.96,VALID,0,VALID,90.8383,VALID,0,VALID,23.8183,VALID,54,VALID,0.847266,
2011-01-24, 00:09:04,VALID,1001,VALID,0,VALID,90.7696,VALID,0,VALID,23.8378,VALID,54,VALID,0.586328,
2011-01-24, 00:10:04,VALID,1000.98,VALID,0,VALID,90.7009,VALID,0,VALID,23.8573,VALID,54,VALID,0.363281,
2011-01-24, 00:11:04,VALID,1000.97,VALID,0,VALID,90.6857,VALID,0,VALID,23.8768,VALID,54,VALID,0.186719,
2011-01-24, 00:12:04,VALID,1000.96,VALID,0,VALID,90.6628,VALID,0,VALID,23.8555,VALID,360,VALID,0.903125,
2011-01-24, 00:13:04,VALID,1000.96,VALID,0,VALID,90.6399,VALID,0,VALID,23.8945,VALID,342,VALID,1.00234,
2011-01-24, 00:14:04,VALID,1000.94,VALID,0,VALID,90.6857,VALID,0,VALID,23.8945,VALID,336,VALID,0.976563,
2011-01-24, 00:15:04,VALID,1000.92,VALID,0,VALID,90.5331,VALID,0,VALID,23.914,VALID,338,VALID,0.804688,
2011-01-24, 00:16:04,VALID,1000.92,VALID,0,VALID,90.2431,VALID,0,VALID,23.9159,VALID,347,VALID,1.11367,
2011-01-24, 00:17:04,VALID,1000.88,VALID,0,VALID,89.9456,VALID,0,VALID,23.9336,VALID,346,VALID,1.04844,
2011-01-24, 00:18:04,VALID,1000.86,VALID,0,VALID,89.5412,VALID,0,VALID,23.9354,VALID,339,VALID,1.31016,
2011-01-24, 00:19:04,VALID,1000.81,VALID,0,VALID,88.9843,VALID,0,VALID,23.9531,VALID,309,VALID,1.32344,
2011-01-24, 00:20:04,VALID,1000.79,VALID,0,VALID,88.6791,VALID,0,VALID,24.0134,VALID,326,VALID,0.897266,
2011-01-24, 00:21:04,VALID,1000.76,VALID,0,VALID,88.5265,VALID,0,VALID,24.0116,VALID,295,VALID,0.539063,
2011-01-24, 00:22:04,VALID,1000.75,VALID,0,VALID,88.3586,VALID,0,VALID,24.0311,VALID,272,VALID,1.09141,
2011-01-24, 00:23:04,VALID,1000.73,VALID,0,VALID,88.1755,VALID,0,VALID,24.072,VALID,255,VALID,0.576563,
2011-01-24, 00:24:04,VALID,1000.71,VALID,0,VALID,87.8703,VALID,0,VALID,24.0506,VALID,305,VALID,0.664844,
2011-01-24, 00:25:04,VALID,1000.7,VALID,0,VALID,87.6109,VALID,0,VALID,24.0701,VALID,323,VALID,0.655078,
2011-01-24, 00:26:04,VALID,1000.69,VALID,0,VALID,87.6186,VALID,0,VALID,24.072,VALID,324,VALID,0.31875,
2011-01-24, 00:27:04,VALID,1000.64,VALID,0,VALID,87.672,VALID,0,VALID,24.0701,VALID,324,VALID,0.0398437,
2011-01-24, 00:28:04,VALID,1000.69,VALID,0,VALID,87.7406,VALID,0,VALID,24.0701,VALID,347,VALID,0.487891,
2011-01-24, 00:29:04,VALID,1000.69,VALID,0,VALID,87.6949,VALID,0,VALID,24.0701,VALID,353,VALID,0.614453,
2011-01-24, 00:30:04,VALID,1000.68,VALID,0,VALID,87.6033,VALID,0,VALID,24.0701,VALID,333,VALID,0.667969,
2011-01-24, 00:31:04,VALID,1000.66,VALID,0,VALID,87.7406,VALID,0,VALID,24.0897,VALID,333,VALID,0.743359,
2011-01-24, 00:32:04,VALID,1000.65,VALID,0,VALID,87.733,VALID,0,VALID,24.0701,VALID,339,VALID,0.696484,
2011-01-24, 00:33:04,VALID,1000.63,VALID,0,VALID,87.794,VALID,0,VALID,24.0701,VALID,344,VALID,0.660156,
2011-01-24, 00:34:04,VALID,1000.64,VALID,0,VALID,87.7177,VALID,0,VALID,24.0506,VALID,340,VALID,1.70508,
2011-01-24, 00:35:04,VALID,1000.66,VALID,0,VALID,87.7864,VALID,0.112286,VALID,24.0701,VALID,342,VALID,1.18047,
2011-01-24, 00:36:04,VALID,1000.64,VALID,0,VALID,87.8627,VALID,0.112286,VALID,24.0701,VALID,289,VALID,1.08711,
2011-01-24, 00:37:04,VALID,1000.61,VALID,0,VALID,88.0306,VALID,0,VALID,24.0701,VALID,337,VALID,0.727734,
2011-01-24, 00:38:04,VALID,1000.57,VALID,0,VALID,87.3973,VALID,0,VALID,24.0311,VALID,335,VALID,1.98242,
2011-01-24, 00:39:04,VALID,1000.58,VALID,0,VALID,86.8251,VALID,0.112286,VALID,24.0116,VALID,322,VALID,1.87891,
2011-01-24, 00:40:04,VALID,1000.54,VALID,0,VALID,86.4589,VALID,0,VALID,23.9726,VALID,342,VALID,1.97969,
2011-01-24, 00:41:04,VALID,1000.57,VALID,0,VALID,86.6801,VALID,0,VALID,23.9531,VALID,313,VALID,2.06797,
2011-01-24, 00:42:04,VALID,1000.57,VALID,0,VALID,86.2605,VALID,0,VALID,23.8945,VALID,315,VALID,2.24609,
2011-01-24, 00:43:04,VALID,1000.6,VALID,0,VALID,86.5046,VALID,0,VALID,23.8555,VALID,309,VALID,1.68438,
2011-01-24, 00:44:04,VALID,1000.59,VALID,0,VALID,86.4054,VALID,0,VALID,23.8183,VALID,336,VALID,2.11875,
2011-01-24, 00:45:04,VALID,1000.62,VALID,0,VALID,86.4589,VALID,0,VALID,23.7579,VALID,321,VALID,2.36484,
2011-01-24, 00:46:04,VALID,1000.65,VALID,0,VALID,86.3215,VALID,0,VALID,23.7384,VALID,315,VALID,2.50586,
2011-01-24, 00:47:04,VALID,1000.64,VALID,0,VALID,86.6954,VALID,0,VALID,23.6994,VALID,358,VALID,1.8043,
2011-01-24, 00:48:04,VALID,1000.67,VALID,0,VALID,86.9624,VALID,0.112286,VALID,23.6604,VALID,353,VALID,2.00625,
2011-01-24, 00:49:04,VALID,1000.68,VALID,0,VALID,87.2523,VALID,0,VALID,23.6409,VALID,342,VALID,1.51016,
2011-01-24, 00:50:04,VALID,1000.66,VALID,0,VALID,87.466,VALID,0,VALID,23.5823,VALID,4,VALID,2.06836,
2011-01-24, 00:51:04,VALID,1000.7,VALID,0,VALID,87.6414,VALID,0,VALID,23.5646,VALID,344,VALID,2.35703,
2011-01-24, 00:52:04,VALID,1000.71,VALID,0,VALID,87.878,VALID,0.112286,VALID,23.5043,VALID,352,VALID,2.68281,
2011-01-24, 00:53:04,VALID,1000.64,VALID,0,VALID,87.4812,VALID,0,VALID,23.4263,VALID,349,VALID,2.4875,
2011-01-24, 00:54:04,VALID,1000.64,VALID,0,VALID,87.6262,VALID,0,VALID,23.3872,VALID,347,VALID,2.74609,
2011-01-24, 00:55:04,VALID,1000.65,VALID,0,VALID,87.7025,VALID,0,VALID,23.3482,VALID,343,VALID,2.33711,
2011-01-24, 00:56:04,VALID,1000.58,VALID,0,VALID,87.6643,VALID,0,VALID,23.35,VALID,318,VALID,1.71836,
2011-01-24, 00:57:04,VALID,1000.58,VALID,0,VALID,87.8017,VALID,0,VALID,23.2897,VALID,353,VALID,1.43711,
2011-01-24, 00:58:04,VALID,1000.56,VALID,0,VALID,87.8932,VALID,0,VALID,23.2719,VALID,360,VALID,3.06914,
2011-01-24, 00:59:04,VALID,1000.54,VALID,0,VALID,87.9009,VALID,0,VALID,23.2312,VALID,3,VALID,2.78047,
2011-01-24, 01:00:04,VALID,1000.55,VALID,0,VALID,87.9619,VALID,0,VALID,23.2117,VALID,346,VALID,1.78203,
2011-01-24, 01:01:04,VALID,1000.53,VALID,0,VALID,88.1832,VALID,0,VALID,23.1921,VALID,342,VALID,1.14805,
2011-01-24, 01:02:04,VALID,1000.5,VALID,0,VALID,88.2594,VALID,0,VALID,23.1726,VALID,329,VALID,0.895312,
2011-01-24, 01:03:04,VALID,1000.5,VALID,0,VALID,88.3357,VALID,0,VALID,23.1531,VALID,320,VALID,1.05898,
2011-01-24, 01:04:04,VALID,1000.47,VALID,0,VALID,88.3586,VALID,0,VALID,23.1939,VALID,325,VALID,2.02969,
2011-01-24, 01:05:04,VALID,1000.48,VALID,0,VALID,88.3815,VALID,0,VALID,23.1336,VALID,312,VALID,1.22305,
2011-01-24, 01:06:04,VALID,1000.53,VALID,0,VALID,88.3663,VALID,0,VALID,23.1336,VALID,295,VALID,1.1668,
2011-01-24, 01:07:04,VALID,1000.5,VALID,0,VALID,88.4426,VALID,0,VALID,23.1336,VALID,335,VALID,1.56836,
2011-01-24, 01:08:04,VALID,1000.49,VALID,0,VALID,88.4883,VALID,0,VALID,23.1141,VALID,355,VALID,1.12188,
2011-01-24, 01:09:04,VALID,1000.52,VALID,0,VALID,88.5951,VALID,0.112286,VALID,23.0946,VALID,339,VALID,1.51211,
2011-01-24, 01:10:04,VALID,1000.51,VALID,0,VALID,88.6333,VALID,0,VALID,23.1141,VALID,339,VALID,1.26758,
2011-01-24, 01:11:04,VALID,1000.51,VALID,0,VALID,88.6943,VALID,0,VALID,23.0946,VALID,333,VALID,1.10195,
2011-01-24, 01:12:04,VALID,1000.51,VALID,0,VALID,88.8088,VALID,0,VALID,23.0751,VALID,290,VALID,0.673047,
2011-01-24, 01:13:04,VALID,1000.48,VALID,0,VALID,88.8622,VALID,0,VALID,23.0964,VALID,320,VALID,0.691797,
2011-01-24, 01:14:04,VALID,1000.44,VALID,0,VALID,88.9537,VALID,0,VALID,23.0751,VALID,27,VALID,0.864844,
2011-01-24, 01:15:04,VALID,1000.44,VALID,0,VALID,88.9995,VALID,0,VALID,23.0964,VALID,271,VALID,0.102344,
2011-01-24, 01:16:04,VALID,1000.44,VALID,0,VALID,89.03,VALID,0.112286,VALID,23.0964,VALID,271,VALID,0.409375,
2011-01-24, 01:17:04,VALID,1000.43,VALID,0,VALID,89.0529,VALID,0,VALID,23.0556,VALID,271,VALID,0.143359,
2011-01-24, 01:18:04,VALID,1000.42,VALID,0,VALID,89.1063,VALID,0,VALID,23.0556,VALID,355,VALID,0.492969,
2011-01-24, 01:19:04,VALID,1000.4,VALID,0,VALID,89.1597,VALID,0,VALID,23.0751,VALID,298,VALID,0.602734,
2011-01-24, 01:20:04,VALID,1000.37,VALID,0,VALID,89.2132,VALID,0,VALID,23.0556,VALID,299,VALID,0.126172,
2011-01-24, 01:21:04,VALID,1000.34,VALID,0,VALID,89.2513,VALID,0,VALID,23.0769,VALID,300,VALID,0.476563,
2011-01-24, 01:22:04,VALID,1000.34,VALID,0,VALID,89.2589,VALID,0,VALID,23.0556,VALID,346,VALID,0.754687,
2011-01-24, 01:23:04,VALID,1000.26,VALID,0,VALID,89.1903,VALID,0,VALID,23.0769,VALID,343,VALID,0.0824219,
2011-01-24, 01:24:04,VALID,1000.23,VALID,0,VALID,89.175,VALID,0,VALID,23.0556,VALID,343,VALID,0,
2011-01-24, 01:25:04,VALID,1000.18,VALID,0,VALID,89.1368,VALID,0,VALID,23.0573,VALID,343,VALID,0,
2011-01-24, 01:26:04,VALID,1000.17,VALID,0,VALID,89.1063,VALID,0,VALID,23.0556,VALID,343,VALID,0,
2011-01-24, 01:27:04,VALID,1000.12,VALID,0,VALID,89.1597,VALID,0,VALID,23.0769,VALID,343,VALID,0.212109,
2011-01-24, 01:28:04,VALID,1000.08,VALID,0,VALID,89.1826,VALID,0,VALID,23.0556,VALID,343,VALID,0.03125,
2011-01-24, 01:29:04,VALID,1000.04,VALID,0,VALID,89.1826,VALID,0,VALID,23.0556,VALID,343,VALID,0.00078125,
2011-01-24, 01:30:04,VALID,1000.04,VALID,0,VALID,89.236,VALID,0,VALID,23.0573,VALID,343,VALID,0.269531,
2011-01-24, 01:31:04,VALID,1000.02,VALID,0,VALID,89.2208,VALID,0.112286,VALID,23.0361,VALID,343,VALID,0.25625,
2011-01-24, 01:32:04,VALID,1000.04,VALID,0,VALID,89.1903,VALID,0.112286,VALID,23.0378,VALID,353,VALID,0.282813,
2011-01-24, 01:33:04,VALID,1000.04,VALID,0,VALID,89.1292,VALID,0,VALID,23.0573,VALID,73,VALID,0.636719,
2011-01-24, 01:34:04,VALID,1000.1,VALID,0,VALID,89.0911,VALID,0,VALID,23.0361,VALID,88,VALID,0.722656,
2011-01-24, 01:35:04,VALID,1000.11,VALID,0,VALID,89.0682,VALID,0.112286,VALID,23.0556,VALID,88,VALID,0.444922,
2011-01-24, 01:36:04,VALID,1000.12,VALID,0,VALID,89.1521,VALID,0,VALID,23.0556,VALID,99,VALID,0.955859,
2011-01-24, 01:37:04,VALID,1000.12,VALID,0,VALID,89.2894,VALID,0,VALID,23.0751,VALID,105,VALID,1.3293,
2011-01-24, 01:38:04,VALID,1000.12,VALID,0,VALID,89.526,VALID,0.112286,VALID,23.0751,VALID,112,VALID,1.31367,
2011-01-24, 01:39:04,VALID,1000.11,VALID,0,VALID,89.5794,VALID,0,VALID,23.0946,VALID,112,VALID,1.49063,
2011-01-24, 01:40:04,VALID,1000.09,VALID,0,VALID,89.587,VALID,0,VALID,23.0946,VALID,115,VALID,1.26211,
2011-01-24, 01:41:04,VALID,1000.08,VALID,0,VALID,89.7014,VALID,0.112286,VALID,23.1141,VALID,123,VALID,1.28945,
2011-01-24, 01:42:04,VALID,1000.04,VALID,0,VALID,89.7472,VALID,0.112286,VALID,23.0946,VALID,143,VALID,1.29297,
2011-01-24, 01:43:04,VALID,1000.03,VALID,0,VALID,89.6557,VALID,0,VALID,23.0946,VALID,145,VALID,1.68906,
2011-01-24, 01:44:04,VALID,999.975,VALID,0,VALID,89.526,VALID,0.112286,VALID,23.1141,VALID,134,VALID,1.53086,
2011-01-24, 01:45:04,VALID,999.956,VALID,0,VALID,89.4649,VALID,0.112286,VALID,23.0946,VALID,129,VALID,1.39531,
2011-01-24, 01:46:04,VALID,999.962,VALID,0,VALID,89.3886,VALID,0,VALID,23.1141,VALID,134,VALID,1.14219,
2011-01-24, 01:47:04,VALID,999.926,VALID,0,VALID,89.3963,VALID,0,VALID,23.0946,VALID,127,VALID,1.07227,
2011-01-24, 01:48:04,VALID,999.9,VALID,0,VALID,89.442,VALID,0.112286,VALID,23.0946,VALID,114,VALID,1.03008,
2011-01-24, 01:49:04,VALID,999.849,VALID,0,VALID,89.4497,VALID,0.112286,VALID,23.0946,VALID,122,VALID,1.23984,
2011-01-24, 01:50:04,VALID,999.831,VALID,0,VALID,89.4878,VALID,0,VALID,23.0964,VALID,117,VALID,0.814453,
2011-01-24, 01:51:04,VALID,999.81,VALID,0,VALID,89.5489,VALID,0,VALID,23.0751,VALID,117,VALID,0.712891,
2011-01-24, 01:52:04,VALID,999.767,VALID,0,VALID,89.5717,VALID,0.112286,VALID,23.0751,VALID,121,VALID,0.681641,
2011-01-24, 01:53:04,VALID,999.732,VALID,0,VALID,89.6328,VALID,0.112286,VALID,23.0751,VALID,115,VALID,0.592578,
2011-01-24, 01:54:04,VALID,999.719,VALID,0,VALID,89.6862,VALID,0.112286,VALID,23.0556,VALID,121,VALID,0.804297,
2011-01-24, 01:55:04,VALID,999.721,VALID,0,VALID,89.7091,VALID,0,VALID,23.0769,VALID,125,VALID,0.857813,
2011-01-24, 01:56:04,VALID,999.706,VALID,0,VALID,89.7091,VALID,0,VALID,23.0361,VALID,128,VALID,0.583984,
2011-01-24, 01:57:04,VALID,999.676,VALID,0,VALID,89.6709,VALID,0,VALID,23.0166,VALID,124,VALID,0.923828,
2011-01-24, 01:58:04,VALID,999.682,VALID,0,VALID,89.6404,VALID,0.112286,VALID,23.0166,VALID,153,VALID,1.02266,
2011-01-24, 01:59:04,VALID,999.646,VALID,0,VALID,89.648,VALID,0,VALID,23.0378,VALID,153,VALID,0.546875,
2011-01-24, 02:00:04,VALID,999.593,VALID,0,VALID,89.6251,VALID,0,VALID,22.9971,VALID,159,VALID,0.538281,
2011-01-24, 02:01:04,VALID,999.536,VALID,0,VALID,89.6099,VALID,0.112286,VALID,22.9971,VALID,159,VALID,0.581641,
2011-01-24, 02:02:04,VALID,999.54,VALID,0,VALID,89.6023,VALID,0.112286,VALID,23.0166,VALID,191,VALID,1.33711,
2011-01-24, 02:03:04,VALID,999.509,VALID,0,VALID,89.5336,VALID,0.112286,VALID,23.0556,VALID,178,VALID,1.31445,
2011-01-24, 02:04:04,VALID,999.494,VALID,0,VALID,89.32,VALID,0,VALID,23.0964,VALID,171,VALID,1.42891,
2011-01-24, 02:05:04,VALID,999.476,VALID,0,VALID,89.0377,VALID,0.112286,VALID,23.1141,VALID,179,VALID,1.5082,
2011-01-24, 02:06:04,VALID,999.487,VALID,0,VALID,88.763,VALID,0,VALID,23.1531,VALID,181,VALID,1.51758,
2011-01-24, 02:07:04,VALID,999.47,VALID,0,VALID,88.557,VALID,0.112286,VALID,23.1921,VALID,185,VALID,1.58281,
2011-01-24, 02:08:04,VALID,999.445,VALID,0,VALID,88.29,VALID,0.112286,VALID,23.2329,VALID,183,VALID,1.51563,
2011-01-24, 02:09:04,VALID,999.478,VALID,0,VALID,88.1908,VALID,0,VALID,23.2312,VALID,210,VALID,1.36016,
2011-01-24, 02:10:04,VALID,999.452,VALID,0,VALID,88.1374,VALID,0,VALID,23.2312,VALID,230,VALID,1.20781,
2011-01-24, 02:11:04,VALID,999.446,VALID,0,VALID,88.1145,VALID,0,VALID,23.2117,VALID,239,VALID,1.04688,
2011-01-24, 02:12:04,VALID,999.427,VALID,0,VALID,88.1068,VALID,0,VALID,23.1921,VALID,272,VALID,0.909766,
2011-01-24, 02:13:04,VALID,999.431,VALID,0,VALID,88.2442,VALID,0.112286,VALID,23.2117,VALID,260,VALID,0.517578,
2011-01-24, 02:14:04,VALID,999.45,VALID,0,VALID,88.3052,VALID,0.112286,VALID,23.1921,VALID,255,VALID,0.579687,
2011-01-24, 02:15:04,VALID,999.468,VALID,0,VALID,88.3052,VALID,0,VALID,23.1921,VALID,255,VALID,0.2875,
2011-01-24, 02:16:04,VALID,999.448,VALID,0,VALID,88.1908,VALID,0.112286,VALID,23.1921,VALID,255,VALID,0.659375,
2011-01-24, 02:17:04,VALID,999.497,VALID,0,VALID,88.1145,VALID,0.112286,VALID,23.1921,VALID,201,VALID,0.366406,
2011-01-24, 02:18:04,VALID,999.515,VALID,0,VALID,88.0992,VALID,0,VALID,23.1921,VALID,201,VALID,0.278125,
2011-01-24, 02:19:04,VALID,999.489,VALID,0,VALID,88.0306,VALID,0.112286,VALID,23.1921,VALID,201,VALID,0.610156,
2011-01-24, 02:20:04,VALID,999.501,VALID,0,VALID,88.0916,VALID,0,VALID,23.2117,VALID,196,VALID,0.44375,
2011-01-24, 02:21:04,VALID,999.492,VALID,0,VALID,88.2442,VALID,0,VALID,23.2117,VALID,204,VALID,1.01523,
2011-01-24, 02:22:04,VALID,999.507,VALID,0,VALID,88.2747,VALID,0.112286,VALID,23.2312,VALID,188,VALID,1.12461,
2011-01-24, 02:23:04,VALID,999.511,VALID,0,VALID,88.206,VALID,0,VALID,23.2719,VALID,172,VALID,1.37266,
2011-01-24, 02:24:04,VALID,999.477,VALID,0,VALID,88.1526,VALID,0,VALID,23.2507,VALID,178,VALID,1.37617,
2011-01-24, 02:25:04,VALID,999.496,VALID,0,VALID,88.0458,VALID,0,VALID,23.2915,VALID,170,VALID,0.975781,
2011-01-24, 02:26:04,VALID,999.5,VALID,0,VALID,88.1145,VALID,0,VALID,23.2897,VALID,176,VALID,1.49844,
2011-01-24, 02:27:04,VALID,999.502,VALID,0,VALID,88.0382,VALID,0,VALID,23.2897,VALID,177,VALID,1.75977,
2011-01-24, 02:28:04,VALID,999.476,VALID,0,VALID,88.0916,VALID,0,VALID,23.311,VALID,176,VALID,1.52656,
2011-01-24, 02:29:04,VALID,999.43,VALID,0,VALID,88.0992,VALID,0.112286,VALID,23.3092,VALID,168,VALID,1.41523,
2011-01-24, 02:30:04,VALID,999.406,VALID,0,VALID,88.1297,VALID,0,VALID,23.3092,VALID,172,VALID,1.46094,
2011-01-24, 02:31:04,VALID,999.388,VALID,0,VALID,88.1755,VALID,0,VALID,23.3092,VALID,175,VALID,1.21328,
2011-01-24, 02:32:04,VALID,999.347,VALID,0,VALID,88.2518,VALID,0,VALID,23.3092,VALID,178,VALID,1.70625,
2011-01-24, 02:33:04,VALID,999.318,VALID,0,VALID,88.1374,VALID,0,VALID,23.3287,VALID,176,VALID,1.95156,
2011-01-24, 02:34:04,VALID,999.327,VALID,0,VALID,88.0687,VALID,0.112286,VALID,23.3482,VALID,170,VALID,1.12109,
2011-01-24, 02:35:04,VALID,999.337,VALID,0,VALID,88.0992,VALID,0.112286,VALID,23.3677,VALID,177,VALID,1.18164,
2011-01-24, 02:36:04,VALID,999.34,VALID,0,VALID,87.8474,VALID,0.112286,VALID,23.3677,VALID,176,VALID,1.41797,
2011-01-24, 02:37:04,VALID,999.331,VALID,0,VALID,87.8093,VALID,0,VALID,23.389,VALID,170,VALID,1.12656,
2011-01-24, 02:38:04,VALID,999.322,VALID,0,VALID,87.8398,VALID,0,VALID,23.3482,VALID,170,VALID,1.35391,
2011-01-24, 02:39:04,VALID,999.343,VALID,0,VALID,87.9161,VALID,0,VALID,23.389,VALID,168,VALID,1.11563,
2011-01-24, 02:40:04,VALID,999.328,VALID,0,VALID,87.9466,VALID,0.112286,VALID,23.3695,VALID,175,VALID,0.841016,
2011-01-24, 02:41:04,VALID,999.331,VALID,0,VALID,88.0077,VALID,0.112286,VALID,23.3482,VALID,160,VALID,0.803906,
2011-01-24, 02:42:04,VALID,999.345,VALID,0,VALID,88.0077,VALID,0,VALID,23.3287,VALID,162,VALID,0.85,
2011-01-24, 02:43:04,VALID,999.356,VALID,0,VALID,87.9619,VALID,0.112286,VALID,23.3287,VALID,171,VALID,1.08203,
2011-01-24, 02:44:04,VALID,999.322,VALID,0,VALID,88.0077,VALID,0.112286,VALID,23.3287,VALID,175,VALID,1.31719,
2011-01-24, 02:45:04,VALID,999.345,VALID,0,VALID,87.9695,VALID,0.112286,VALID,23.3092,VALID,173,VALID,1.14766,
2011-01-24, 02:46:04,VALID,999.34,VALID,0,VALID,87.9619,VALID,0.112286,VALID,23.3092,VALID,170,VALID,1.39414,
2011-01-24, 02:47:04,VALID,999.365,VALID,0,VALID,87.9695,VALID,0,VALID,23.3287,VALID,162,VALID,1.49023,
2011-01-24, 02:48:04,VALID,999.384,VALID,0,VALID,87.9237,VALID,0.112286,VALID,23.3092,VALID,157,VALID,0.899609,
2011-01-24, 02:49:04,VALID,999.417,VALID,0,VALID,87.9619,VALID,0,VALID,23.3287,VALID,158,VALID,1.10625,
2011-01-24, 02:50:04,VALID,999.44,VALID,0,VALID,88.0077,VALID,0.112286,VALID,23.3092,VALID,155,VALID,1.17188,
2011-01-24, 02:51:04,VALID,999.45,VALID,0,VALID,88.1068,VALID,0.112286,VALID,23.3092,VALID,142,VALID,1.23477,
2011-01-24, 02:52:04,VALID,999.445,VALID,0,VALID,88.1679,VALID,0.112286,VALID,23.2897,VALID,146,VALID,1.18945,
2011-01-24, 02:53:04,VALID,999.493,VALID,0,VALID,88.2213,VALID,0.112286,VALID,23.2897,VALID,150,VALID,1.45586,
2011-01-24, 02:54:04,VALID,999.512,VALID,0,VALID,88.2518,VALID,0.112286,VALID,23.3305,VALID,166,VALID,1.45469,
2011-01-24, 02:55:04,VALID,999.499,VALID,0,VALID,88.2747,VALID,0.112286,VALID,23.3092,VALID,172,VALID,0.912109,
2011-01-24, 02:56:04,VALID,999.483,VALID,0,VALID,88.3129,VALID,0.112286,VALID,23.3092,VALID,167,VALID,0.862891,
2011-01-24, 02:57:04,VALID,999.525,VALID,0,VALID,88.3739,VALID,0,VALID,23.3127,VALID,162,VALID,1.18242,
2011-01-24, 02:58:04,VALID,999.514,VALID,0,VALID,88.3586,VALID,0,VALID,23.2915,VALID,160,VALID,0.786328,
2011-01-24, 02:59:04,VALID,999.512,VALID,0,VALID,88.3434,VALID,0,VALID,23.3127,VALID,152,VALID,0.961328,
2011-01-24, 03:00:04,VALID,999.517,VALID,0,VALID,88.3129,VALID,0,VALID,23.2932,VALID,152,VALID,1.1543,
2011-01-24, 03:01:04,VALID,999.54,VALID,0,VALID,88.3052,VALID,0,VALID,23.2932,VALID,137,VALID,0.883203,
2011-01-24, 03:02:04,VALID,999.544,VALID,0,VALID,88.3205,VALID,0,VALID,23.2932,VALID,144,VALID,0.843359,
2011-01-24, 03:03:04,VALID,999.556,VALID,0,VALID,88.351,VALID,0,VALID,23.2524,VALID,140,VALID,0.985937,
2011-01-24, 03:04:04,VALID,999.529,VALID,0,VALID,88.412,VALID,0,VALID,23.2542,VALID,132,VALID,0.782812,
2011-01-24, 03:05:04,VALID,999.57,VALID,0,VALID,88.4883,VALID,0,VALID,23.2542,VALID,131,VALID,0.65,
2011-01-24, 03:06:04,VALID,999.526,VALID,0,VALID,88.5723,VALID,0,VALID,23.2329,VALID,131,VALID,0.558203,
2011-01-24, 03:07:04,VALID,999.522,VALID,0,VALID,88.6562,VALID,0,VALID,23.2134,VALID,121,VALID,0.768359,
2011-01-24, 03:08:04,VALID,999.483,VALID,0,VALID,88.6638,VALID,0,VALID,23.2134,VALID,120,VALID,0.573047,
2011-01-24, 03:09:04,VALID,999.485,VALID,0,VALID,88.6791,VALID,0,VALID,23.2152,VALID,107,VALID,0.454297,
2011-01-24, 03:10:04,VALID,999.458,VALID,0,VALID,88.7325,VALID,0,VALID,23.1744,VALID,92,VALID,0.764063,
2011-01-24, 03:11:04,VALID,999.465,VALID,0,VALID,88.7859,VALID,0,VALID,23.1744,VALID,73,VALID,0.958594,
2011-01-24, 03:12:04,VALID,999.438,VALID,0,VALID,88.9003,VALID,0,VALID,23.1726,VALID,59,VALID,0.941797,
2011-01-24, 03:13:04,VALID,999.405,VALID,0,VALID,89.03,VALID,0.112286,VALID,23.1744,VALID,59,VALID,0.944141,
2011-01-24, 03:14:04,VALID,999.399,VALID,0,VALID,89.1597,VALID,0.112286,VALID,23.1336,VALID,59,VALID,0.836328,
2011-01-24, 03:15:04,VALID,999.366,VALID,0,VALID,89.2666,VALID,0,VALID,23.1141,VALID,59,VALID,0.774219,
2011-01-24, 03:16:04,VALID,999.357,VALID,0,VALID,89.4039,VALID,0,VALID,23.0964,VALID,59,VALID,0.607813,
2011-01-24, 03:17:04,VALID,999.392,VALID,0,VALID,89.5031,VALID,0.112286,VALID,23.0556,VALID,59,VALID,0.2125,
2011-01-24, 03:18:04,VALID,999.379,VALID,0,VALID,89.6099,VALID,0.112286,VALID,23.0361,VALID,59,VALID,0.0210938,
2011-01-24, 03:19:04,VALID,999.389,VALID,0,VALID,89.7167,VALID,0,VALID,23.0378,VALID,59,VALID,0.477344,
2011-01-24, 03:20:04,VALID,999.351,VALID,0,VALID,89.8922,VALID,0,VALID,22.9971,VALID,59,VALID,0.632422,
2011-01-24, 03:21:04,VALID,999.357,VALID,0,VALID,90.0066,VALID,0,VALID,22.9776,VALID,54,VALID,0.772656,
2011-01-24, 03:22:04,VALID,999.339,VALID,0,VALID,90.1134,VALID,0.112286,VALID,22.9776,VALID,54,VALID,0.633594,
2011-01-24, 03:23:04,VALID,999.375,VALID,0,VALID,90.1897,VALID,0,VALID,22.9581,VALID,54,VALID,0.686328,
2011-01-24, 03:24:04,VALID,999.339,VALID,0,VALID,90.2126,VALID,0,VALID,22.9598,VALID,68,VALID,0.875781,
2011-01-24, 03:25:04,VALID,999.36,VALID,0,VALID,90.2126,VALID,0,VALID,22.9598,VALID,72,VALID,0.622266,
2011-01-24, 03:26:04,VALID,999.407,VALID,0,VALID,90.1897,VALID,0.112286,VALID,22.9793,VALID,72,VALID,0.925,
2011-01-24, 03:27:04,VALID,999.429,VALID,0,VALID,90.1363,VALID,0,VALID,22.9811,VALID,72,VALID,0.752734,
2011-01-24, 03:28:04,VALID,999.453,VALID,0,VALID,90.1592,VALID,0,VALID,22.9793,VALID,71,VALID,1.00742,
2011-01-24, 03:29:04,VALID,999.495,VALID,0,VALID,90.2355,VALID,0,VALID,23.0201,VALID,61,VALID,0.773047,
2011-01-24, 03:30:04,VALID,999.494,VALID,0,VALID,90.2966,VALID,0,VALID,22.9988,VALID,61,VALID,0.769141,
2011-01-24, 03:31:04,VALID,999.491,VALID,0,VALID,90.3194,VALID,0,VALID,23.0201,VALID,61,VALID,0.753125,
2011-01-24, 03:32:04,VALID,999.467,VALID,0,VALID,90.3805,VALID,0,VALID,23.0201,VALID,61,VALID,0.349609,
2011-01-24, 03:33:04,VALID,999.469,VALID,0,VALID,90.4339,VALID,0,VALID,23.0183,VALID,64,VALID,0.439063,
2011-01-24, 03:34:04,VALID,999.457,VALID,0,VALID,90.5026,VALID,0,VALID,22.9988,VALID,79,VALID,0.571484,
2011-01-24, 03:35:04,VALID,999.427,VALID,0,VALID,90.5254,VALID,0,VALID,23.0201,VALID,99,VALID,0.537109,
2011-01-24, 03:36:04,VALID,999.445,VALID,0,VALID,90.4797,VALID,0,VALID,23.0201,VALID,121,VALID,0.544141,
2011-01-24, 03:37:04,VALID,999.41,VALID,0,VALID,90.4568,VALID,0,VALID,23.0201,VALID,121,VALID,0.570703,
2011-01-24, 03:38:04,VALID,999.362,VALID,0,VALID,90.3881,VALID,0,VALID,22.9793,VALID,123,VALID,0.470703,
2011-01-24, 03:39:04,VALID,999.365,VALID,0,VALID,90.2737,VALID,0,VALID,23.0006,VALID,123,VALID,0.517969,
2011-01-24, 03:40:04,VALID,999.338,VALID,0,VALID,90.1516,VALID,0,VALID,22.9988,VALID,123,VALID,0.58125,
2011-01-24, 03:41:04,VALID,999.343,VALID,0,VALID,90.0371,VALID,0,VALID,22.9988,VALID,123,VALID,0.452734,
2011-01-24, 03:42:04,VALID,999.333,VALID,0,VALID,89.9227,VALID,0,VALID,23.0378,VALID,123,VALID,0.496484,